SCP
0 0 0 0 0 0 0 0 0 0 0 0 0 0 0 0 0 0 0 0 0 0 0 0 0 0 0 0 0 0 0 0 0 0 0 1 1 1
0 0 0 0 0 0 0 0 0 0 0 0 0 0 0 0 0 0 0 0 0 0 0 0 0 0 0 0 0 0 0 0 0 0 0 0 1 1
0 0 0 0 0 0 0 0 0 0 0 0 0 0 0 0 0 0 0 0 0 0 0 0 0 0 0 0 0 0 0 0 0 0 0 0 0 0
0 0 0 0 0 0 0 0 0 0 0 0 0 0 0 0 0 0 0 0 0 0 0 0 0 0 0 0 0 0 0 0 0 0 0 0 0 0
0 0 0 0 0 0 0 0 0 0 0 0 0 0 0 0 0 0 0 0 0 0 0 0 0 0 0 0 0 0 0 0 0 0 0 0 0 0
0 0 0 0 0 0 0 0 0 0 0 0 0 0 0 0 0 0 0 0 0 0 0 0 0 0 0 0 0 0 0 0 0 0 0 0 0 0
0 0 0 0 0 0 0 0 0 0 0 0 0 0 0 0 0 0 0 0 0 0 0 0 0 0 0 0 0 0 0 0 0 0 0 0 0 0
0 0 0 0 0 0 0 0 0 0 0 0 0 0 0 0 0 0 0 0 0 0 0 0 0 0 0 0 0 0 0 0 0 0 0 0 0 0
0 0 0 0 0 0 0 0 0 0 0 0 0 0 0 0 0 0 0 0 0 0 0 0 0 0 0 0 0 0 0 0 0 0 0 0 0 0
0 0 0 0 0 0 0 0 0 0 0 0 0 0 0 0 0 0 0 0 0 0 0 0 0 0 0 0 0 0 0 0 0 0 0 0 0 0
0 0 0 0 0 0 0 0 0 0 0 0 0 0 0 0 0 0 0 0 0 0 0 0 0 0 0 0 0 0 0 0 0 0 0 0 0 0
0 0 0 0 0 0 0 0 0 0 0 0 0 0 0 0 0 0 0 0 0 0 0 0 0 0 0 0 0 0 0 0 0 0 0 0 0 0
0 0 0 0 0 0 0 0 0 0 0 0 0 0 0 0 0 0 0 0 0 0 0 0 0 0 0 0 0 0 0 0 0 0 0 0 0 0
0 0 0 0 0 0 0 0 0 0 0 0 0 0 0 0 0 0 0 0 0 0 0 0 0 0 0 0 0 0 0 0 0 0 0 0 0 0
0 0 0 0 0 0 0 0 0 0 0 0 0 0 0 0 0 0 0 0 0 0 0 0 0 0 0 0 0 0 0 0 0 0 0 0 0 0
0 0 0 0 0 0 0 0 0 0 0 0 0 0 0 0 0 0 0 0 0 0 0 0 0 0 0 0 0 0 0 0 0 0 0 0 0 0
0 0 0 0 0 0 0 0 0 0 0 0 0 0 0 0 0 0 0 0 0 0 0 0 0 0 0 0 0 0 0 0 0 0 0 0 0 0
0 0 0 0 0 0 0 0 0 0 0 0 0 0 0 0 0 0 0 0 0 0 0 0 0 0 0 0 0 0 0 0 0 0 0 0 0 0
0 0 0 0 0 0 0 0 0 0 0 0 0 0 0 0 0 0 0 0 0 0 0 0 0 0 0 0 0 0 0 0 0 0 0 0 0 0
0 0 0 0 0 0 0 0 0 0 0 0 0 0 0 0 0 0 0 0 0 0 0 0 0 0 0 0 0 0 0 0 0 0 0 0 0 0
0 0 0 0 0 0 0 0 0 0 0 0 0 0 0 0 0 0 0 0 0 0 0 0 0 0 0 0 0 0 0 0 0 0 0 0 0 0
0 0 0 0 0 0 0 0 0 0 0 0 0 0 0 0 0 0 0 0 0 0 0 0 0 0 0 0 0 0 0 0 0 0 0 0 0 0
0 0 0 0 0 0 0 0 0 0 0 0 0 0 0 0 0 0 0 0 0 0 0 0 0 0 0 0 0 0 0 0 0 0 0 0 0 0
Wind_Speed
2 2 1 1 1 1 2 3 4 1 1 3 2 2 2 1 2 1 1 2 2 2 3 4 4 5 5 5 6 6 6 6 6 6 6 6 6 6
1 2 2 1 1 1 1 1 2 3 1 2 2 2 2 1 2 1 2 3 3 2 2 3 3 4 4 4 5 5 5 5 5 5 6 6 6 6
2 2 1 1 1 1 1 2 2 2 2 1 2 2 1 2 2 2 2 1 2 3 2 2 3 3 3 4 4 4 4 5 5 5 6 6 6 6
1 2 1 1 2 1 1 2 1 1 2 1 2 2 2 2 2 2 2 2 2 3 3 4 4 4 3 4 4 4 4 4 5 5 6 6 6 7
2 2 1 2 1 1 1 1 1 1 2 2 1 1 2 2 2 3 3 3 2 3 3 4 4 4 4 4 4 4 4 4 5 5 6 6 7 7
1 2 2 2 2 1 1 1 1 2 2 1 1 1 2 2 2 2 3 3 3 3 4 4 4 5 5 5 5 5 5 5 5 5 5 6 6 7
1 1 1 2 2 2 2 2 2 2 1 1 1 1 2 2 2 2 2 3 3 2 2 3 3 3 3 5 5 5 5 5 5 5 6 6 7 8
1 0 1 2 2 2 3 3 4 3 2 1 0 0 2 1 1 1 1 2 3 3 2 3 2 2 3 2 4 5 6 6 6 6 7 7 7 8
2 1 1 2 2 1 2 4 2 2 3 4 2 2 2 2 1 1 1 1 2 3 1 2 2 2 3 4 6 6 7 8 7 7 7 8 8 9
1 2 1 0 1 2 2 2 2 2 1 1 2 2 1 1 1 1 2 1 2 2 1 1 2 3 3 3 6 7 8 9 8 9 9 9 9 9
1 1 2 1 1 3 3 2 2 2 3 3 3 3 4 4 3 2 2 2 2 3 1 1 2 3 3 2 4 7 8 9 9 10 11 10 10 9
1 1 2 2 3 4 3 3 2 1 2 3 4 5 4 5 5 2 1 0 1 2 2 1 2 2 3 3 3 4 4 7 9 10 11 11 11 6
1 1 1 3 4 5 4 3 2 2 2 2 2 3 3 3 3 2 1 1 0 1 2 1 1 1 1 3 3 3 3 3 4 5 8 11 11 7
2 1 1 4 5 5 4 4 5 4 2 2 2 2 2 2 3 3 2 1 0 1 2 1 1 1 2 3 4 4 3 3 3 4 4 8 8 10
2 3 3 4 4 3 4 4 4 3 2 2 1 1 2 2 2 2 3 2 3 3 3 2 1 2 1 2 3 3 4 3 3 4 4 4 4 4
2 3 4 5 4 4 4 3 2 2 2 1 0 1 1 2 2 2 2 2 3 4 4 4 3 2 2 3 2 3 3 4 5 5 5 5 4 4
3 3 3 3 2 2 2 1 1 1 1 1 1 1 1 2 2 2 2 2 2 3 5 4 4 3 3 2 2 3 4 4 5 5 4 5 5 5
5 3 2 1 1 0 0 1 1 1 1 0 1 1 1 1 2 2 2 1 2 2 3 4 4 4 4 3 1 2 3 4 5 5 4 5 6 6
4 2 1 1 1 0 0 0 0 1 0 0 1 1 1 1 2 2 2 2 2 3 3 3 3 3 4 6 5 2 4 5 5 5 4 4 6 7
2 2 1 1 1 1 1 1 0 0 0 0 0 0 0 1 1 2 2 2 3 3 4 4 3 3 4 5 5 6 6 5 5 6 6 5 5 8
2 1 1 1 1 1 1 1 1 1 1 0 0 1 1 1 1 2 2 3 3 3 3 4 5 7 4 3 4 5 5 7 8 6 6 6 7 6
2 2 2 2 1 1 1 1 1 1 1 1 1 1 1 1 1 2 2 2 2 3 4 4 5 4 3 3 5 7 7 7 8 10 9 8 5 5
3 2 2 1 1 1 1 1 1 1 0 1 1 1 1 1 1 2 2 2 3 3 4 4 4 3 3 4 5 6 8 8 6 6 6 9 11 12
Wind_Direction
94 91 83 45 69 89 119 139 140 129 306 301 310 311 311 297 317 325 314 341 357 11 20 22 19 18 18 18 16 13 8 6 7 8 7 5 1 359
89 88 70 42 64 68 93 103 126 143 180 271 270 290 319 335 342 322 308 326 318 322 351 2 3 3 1 358 0 359 358 357 354 351 350 350 350 345
67 87 67 60 60 46 64 76 87 119 141 285 302 314 339 335 338 331 317 307 305 314 311 317 327 339 347 346 343 343 340 338 337 337 339 338 339 342
124 96 56 74 61 43 65 71 81 115 136 165 319 327 319 312 326 335 333 329 300 315 308 300 308 317 324 329 327 327 326 325 325 326 327 326 327 328
147 140 149 109 82 57 77 78 71 80 99 123 311 319 324 343 356 348 344 336 325 330 322 312 307 313 319 322 322 320 319 320 322 323 320 319 319 319
139 153 162 155 167 161 120 115 99 80 73 81 29 340 330 333 12 351 340 336 330 345 349 348 337 336 335 334 330 329 328 324 321 318 317 316 317 318
98 119 139 143 163 162 144 156 129 109 92 83 33 1 342 350 336 316 319 317 313 339 335 340 342 338 336 333 334 336 335 334 331 330 328 322 316 314
130 57 75 64 62 90 114 133 142 145 159 152 183 229 274 272 292 322 331 352 321 328 345 322 351 329 321 324 331 333 332 329 327 326 326 324 319 314
145 122 83 58 58 60 57 64 73 105 150 159 167 219 233 243 246 326 298 267 260 298 349 316 332 321 314 340 346 345 341 336 332 331 329 326 322 319
151 154 140 54 81 119 96 66 33 11 53 148 186 226 235 238 207 221 239 283 298 319 31 313 319 312 318 323 347 355 353 352 351 348 344 339 333 327
105 103 128 119 80 118 112 99 41 3 31 61 75 52 40 43 57 55 23 26 334 317 346 337 309 310 309 312 339 352 349 350 354 356 353 350 345 337
62 44 70 92 91 106 120 116 93 353 24 36 37 27 27 29 37 57 78 50 325 308 323 346 320 341 325 316 328 336 341 343 347 348 350 350 347 340
102 52 34 79 91 98 106 108 107 98 63 58 40 23 18 17 11 10 28 101 134 279 312 347 315 327 289 302 313 319 329 329 333 335 341 343 342 341
145 160 100 94 91 91 89 81 79 76 67 61 48 21 6 353 345 350 351 359 342 269 309 356 289 282 290 299 301 314 322 325 328 324 323 332 333 334
132 118 106 100 93 82 70 69 71 73 72 63 31 343 323 324 340 348 352 355 352 346 353 342 314 294 266 274 293 306 313 315 324 324 321 321 318 326
118 100 94 89 84 72 59 49 55 78 98 101 340 317 334 359 0 353 351 352 353 335 339 346 339 318 292 288 289 303 314 313 322 321 317 312 311 311
119 85 71 66 64 52 44 38 41 51 59 50 45 2 356 360 347 349 357 4 354 326 332 338 341 331 299 283 301 307 314 314 311 316 321 315 304 308
113 100 104 105 113 113 78 24 28 21 3 36 45 24 3 357 354 356 2 3 340 328 328 329 338 344 345 339 281 302 313 309 310 315 317 313 309 313
111 118 131 150 156 137 139 123 357 320 13 76 55 12 2 4 3 355 353 351 338 329 325 330 343 349 339 324 311 316 313 311 315 317 313 306 300 305
125 147 174 180 175 180 191 195 233 358 76 116 48 328 321 346 350 342 336 331 328 328 329 335 337 330 309 299 299 307 314 308 308 308 304 296 286 291
180 185 193 190 189 196 202 198 196 209 227 220 233 259 273 299 314 312 313 325 329 326 325 319 309 313 302 307 309 308 304 303 301 300 304 306 311 310
185 194 205 202 196 194 192 189 192 210 226 227 240 261 279 294 300 306 309 313 311 305 305 304 310 320 320 312 306 304 306 308 309 312 308 301 306 309
193 194 198 197 190 180 181 185 179 192 229 229 234 261 282 290 291 291 296 300 304 307 311 314 317 316 308 298 298 301 305 310 311 314 310 313 314 307